| time (UTC) | temp C | wind direction | speed KPH | gust KPH | rain 1hr cm | rain 24hr cm | rain mn cm | humidity % | barometer mb |
| 20260506081326 | 16 | 192 | 3.2 | 3.2 | 0.00 | 0.00 | 0.00 | 75 | 1009.1 |
| 20260506080823 | 16 | 192 | 4.8 | 4.8 | 0.00 | 0.00 | 0.00 | 75 | 1009.2 |
| 20260506080319 | 16 | 192 | 3.2 | 3.2 | 0.00 | 0.00 | 0.00 | 75 | 1009.2 |
| 20260506073304 | 16 | 191 | 4.8 | 4.8 | 0.00 | 0.00 | 0.00 | 73 | 1009.1 |
| 20260506072801 | 16 | 193 | 6.4 | 8.0 | 0.00 | 0.00 | 0.00 | 73 | 1009.1 |
| 20260506072258 | 16 | 190 | 3.2 | 3.2 | 0.00 | 0.00 | 0.00 | 72 | 1009.5 |
| 20260506071756 | 16 | 192 | 4.8 | 8.0 | 0.00 | 0.00 | 0.00 | 72 | 1009.4 |
| 20260506071254 | 16 | 193 | 3.2 | 3.2 | 0.00 | 0.00 | 0.00 | 72 | 1009.6 |
| 20260506070750 | 16 | 201 | 1.6 | 1.6 | 0.00 | 0.00 | 0.00 | 71 | 1009.2 |
| 20260506070247 | 16 | 207 | 1.6 | 3.2 | 0.00 | 0.00 | 0.00 | 72 | 1009.7 |
| 20260506062224 | 17 | 221 | 3.2 | 4.8 | 0.00 | 0.00 | 0.00 | 69 | 1010.0 |
| 20260506061720 | 17 | 197 | 3.2 | 4.8 | 0.00 | 0.00 | 0.00 | 70 | 1010.0 |
| 20260506061218 | 17 | 229 | 3.2 | 3.2 | 0.00 | 0.00 | 0.00 | 70 | 1010.2 |
| 20260506060716 | 17 | 223 | 3.2 | 3.2 | 0.00 | 0.00 | 0.00 | 68 | 1010.2 |
| 20260506060213 | 17 | 227 | 1.6 | 1.6 | 0.00 | 0.00 | 0.00 | 69 | 1010.2 |
| 20260506051145 | 18 | 216 | 4.8 | 4.8 | 0.00 | 0.00 | 0.00 | 65 | 1010.1 |
| 20260506050643 | 18 | 205 | 4.8 | 4.8 | 0.00 | 0.00 | 0.00 | 64 | 1010.2 |
| 20260506050140 | 17 | 222 | 3.2 | 3.2 | 0.00 | 0.00 | 0.00 | 65 | 1010.3 |
| 20260506045132 | 17 | 236 | 3.2 | 3.2 | 0.00 | 0.00 | 0.00 | 65 | 1010.4 |
| 20260506044630 | 18 | 206 | 1.6 | 3.2 | 0.00 | 0.00 | 0.00 | 64 | 1010.2 |
| 20260506044122 | 18 | 208 | 4.8 | 4.8 | 0.00 | 0.00 | 0.00 | 63 | 1010.2 |
| 20260506043619 | 18 | 228 | 1.6 | 1.6 | 0.00 | 0.00 | 0.00 | 63 | 1010.0 |
| 20260506043117 | 18 | 220 | 3.2 | 3.2 | 0.00 | 0.00 | 0.00 | 63 | 1010.3 |
| 20260506042616 | 18 | 223 | 1.6 | 3.2 | 0.00 | 0.00 | 0.00 | 62 | 1010.2 |
| 20260506042114 | 18 | 203 | 3.2 | 3.2 | 0.00 | 0.00 | 0.00 | 62 | 1010.4 |
| 20260506041612 | 18 | 234 | 4.8 | 4.8 | 0.00 | 0.00 | 0.00 | 61 | 1010.3 |
| 20260506041108 | 18 | 215 | 4.8 | 8.0 | 0.00 | 0.00 | 0.00 | 61 | 1010.2 |
| 20260506040607 | 18 | 236 | 0.0 | 0.0 | 0.00 | 0.00 | 0.00 | 61 | 1010.2 |
| 20260506035600 | 18 | 222 | 1.6 | 3.2 | 0.00 | 0.00 | 0.00 | 61 | 1010.3 |
| 20260506035056 | 18 | 209 | 4.8 | 4.8 | 0.00 | 0.00 | 0.00 | 60 | 1010.5 |
| 20260506034553 | 18 | 225 | 3.2 | 4.8 | 0.00 | 0.00 | 0.00 | 59 | 1010.3 |
| 20260506034050 | 18 | 207 | 3.2 | 3.2 | 0.00 | 0.00 | 0.00 | 59 | 1010.2 |
| 20260506033548 | 18 | 194 | 1.6 | 3.2 | 0.00 | 0.00 | 0.00 | 60 | 1010.1 |
| 20260506033044 | 18 | 173 | 6.4 | 8.0 | 0.00 | 0.00 | 0.00 | 59 | 1010.0 |
| 20260506032542 | 18 | 210 | 1.6 | 3.2 | 0.00 | 0.00 | 0.00 | 59 | 1010.2 |
| 20260506032038 | 18 | 219 | 3.2 | 3.2 | 0.00 | 0.00 | 0.00 | 59 | 1010.1 |
| 20260506031536 | 18 | 203 | 3.2 | 3.2 | 0.00 | 0.00 | 0.00 | 58 | 1010.1 |
| 20260506031033 | 19 | 215 | 3.2 | 3.2 | 0.00 | 0.00 | 0.00 | 57 | 1010.4 |
| 20260506030531 | 19 | 232 | 3.2 | 3.2 | 0.00 | 0.00 | 0.00 | 56 | 1010.1 |
| 20260506030028 | 20 | 208 | 3.2 | 3.2 | 0.00 | 0.00 | 0.00 | 56 | 1010.3 |
| 20260506025525 | 19 | 183 | 6.4 | 8.0 | 0.00 | 0.00 | 0.00 | 57 | 1010.3 |
| 20260506025021 | 19 | 234 | 3.2 | 3.2 | 0.00 | 0.00 | 0.00 | 56 | 1010.4 |
| 20260506024518 | 20 | 223 | 3.2 | 3.2 | 0.00 | 0.00 | 0.00 | 55 | 1010.1 |
| 20260506024014 | 20 | 214 | 4.8 | 4.8 | 0.00 | 0.00 | 0.00 | 55 | 1010.3 |
| 20260506023510 | 20 | 231 | 0.0 | 0.0 | 0.00 | 0.00 | 0.00 | 55 | 1010.5 |
| 20260506023009 | 20 | 254 | 4.8 | 4.8 | 0.00 | 0.00 | 0.00 | 54 | 1010.5 |
| 20260506022506 | 20 | 219 | 4.8 | 4.8 | 0.00 | 0.00 | 0.00 | 54 | 1010.4 |
| 20260506022003 | 20 | 220 | 3.2 | 3.2 | 0.00 | 0.00 | 0.00 | 54 | 1010.4 |
| 20260506021500 | 20 | 223 | 4.8 | 4.8 | 0.00 | 0.00 | 0.00 | 53 | 1010.5 |
| 20260506020957 | 20 | 225 | 3.2 | 3.2 | 0.00 | 0.00 | 0.00 | 54 | 1010.6 |
| 20260506020455 | 20 | 205 | 3.2 | 3.2 | 0.00 | 0.00 | 0.00 | 53 | 1010.4 |
| 20260506015952 | 20 | 221 | 1.6 | 1.6 | 0.00 | 0.00 | 0.00 | 54 | 1010.3 |
| 20260506015449 | 20 | 230 | 3.2 | 4.8 | 0.00 | 0.00 | 0.00 | 54 | 1010.4 |
| 20260506014946 | 20 | 224 | 3.2 | 4.8 | 0.00 | 0.00 | 0.00 | 54 | 1010.2 |
| 20260506014443 | 20 | 241 | 1.6 | 3.2 | 0.00 | 0.00 | 0.00 | 54 | 1010.0 |
| 20260506013939 | 20 | 220 | 0.0 | 0.0 | 0.00 | 0.00 | 0.00 | 54 | 1010.2 |
| 20260506013438 | 20 | 226 | 3.2 | 3.2 | 0.00 | 0.00 | 0.00 | 53 | 1009.9 |
| 20260506012933 | 21 | 201 | 3.2 | 3.2 | 0.00 | 0.00 | 0.00 | 53 | 1009.8 |
| 20260506012430 | 21 | 205 | 3.2 | 3.2 | 0.00 | 0.00 | 0.00 | 52 | 1009.8 |
| 20260506011927 | 21 | 218 | 4.8 | 4.8 | 0.00 | 0.00 | 0.00 | 52 | 1009.9 |
| 20260506011425 | 21 | 223 | 3.2 | 3.2 | 0.00 | 0.00 | 0.00 | 52 | 1009.6 |
| 20260506010921 | 21 | 215 | 3.2 | 3.2 | 0.00 | 0.00 | 0.00 | 52 | 1009.5 |
| 20260506010420 | 21 | 229 | 3.2 | 3.2 | 0.00 | 0.00 | 0.00 | 53 | 1009.7 |
| 20260506005916 | 21 | 237 | 3.2 | 3.2 | 0.00 | 0.00 | 0.00 | 51 | 1009.6 |
| 20260506005414 | 21 | 214 | 1.6 | 1.6 | 0.00 | 0.00 | 0.00 | 51 | 1009.7 |
| 20260506004909 | 21 | 206 | 3.2 | 3.2 | 0.00 | 0.00 | 0.00 | 52 | 1009.9 |
| 20260506004407 | 21 | 226 | 3.2 | 3.2 | 0.00 | 0.00 | 0.00 | 52 | 1009.6 |
| 20260506003903 | 21 | 232 | 4.8 | 4.8 | 0.00 | 0.00 | 0.00 | 51 | 1009.5 |
| 20260506003359 | 21 | 234 | 3.2 | 3.2 | 0.00 | 0.00 | 0.00 | 51 | 1009.6 |
| 20260506002856 | 21 | 194 | 4.8 | 4.8 | 0.00 | 0.00 | 0.00 | 51 | 1009.2 |
| 20260506002352 | 21 | 211 | 3.2 | 4.8 | 0.00 | 0.00 | 0.00 | 52 | 1009.2 |
| 20260506001848 | 21 | 227 | 4.8 | 4.8 | 0.00 | 0.00 | 0.00 | 51 | 1009.2 |
| 20260506001345 | 21 | 216 | 3.2 | 3.2 | 0.00 | 0.00 | 0.00 | 50 | 1009.2 |
| 20260506000842 | 22 | 238 | 1.6 | 3.2 | 0.00 | 0.00 | 0.00 | 50 | 1009.1 |
| 20260506000340 | 22 | 227 | 4.8 | 4.8 | 0.00 | 0.00 | 0.00 | 48 | 1009.0 |
| 20260505235836 | 22 | 209 | 3.2 | 4.8 | 0.00 | 0.00 | 0.00 | 48 | 1009.1 |
| 20260505235334 | 22 | 213 | 4.8 | 4.8 | 0.00 | 0.00 | 0.00 | 49 | 1009.1 |
| 20260505234830 | 22 | 241 | 1.6 | 1.6 | 0.00 | 0.00 | 0.00 | 49 | 1009.0 |
| 20260505234329 | 22 | 238 | 1.6 | 1.6 | 0.00 | 0.00 | 0.00 | 48 | 1009.0 |
| 20260505233825 | 22 | 228 | 1.6 | 3.2 | 0.00 | 0.00 | 0.00 | 49 | 1009.1 |
| 20260505233323 | 22 | 212 | 4.8 | 4.8 | 0.00 | 0.00 | 0.00 | 48 | 1009.2 |
| 20260505232820 | 22 | 192 | 3.2 | 3.2 | 0.00 | 0.00 | 0.00 | 48 | 1009.0 |
| 20260505232318 | 22 | 214 | 1.6 | 3.2 | 0.00 | 0.00 | 0.00 | 47 | 1009.1 |
| 20260505231814 | 22 | 246 | 1.6 | 3.2 | 0.00 | 0.00 | 0.00 | 47 | 1009.1 |
| 20260505231312 | 22 | 204 | 4.8 | 4.8 | 0.00 | 0.00 | 0.00 | 46 | 1009.0 |
| 20260505230810 | 22 | 236 | 4.8 | 4.8 | 0.00 | 0.00 | 0.00 | 46 | 1008.9 |
| 20260505230307 | 22 | 248 | 1.6 | 1.6 | 0.00 | 0.00 | 0.00 | 47 | 1008.9 |
| 20260505225803 | 22 | 275 | 4.8 | 4.8 | 0.00 | 0.00 | 0.00 | 47 | 1008.7 |
| 20260505225301 | 22 | 215 | 1.6 | 1.6 | 0.00 | 0.00 | 0.00 | 47 | 1008.6 |
| 20260505224755 | 22 | 230 | 1.6 | 1.6 | 0.00 | 0.00 | 0.00 | 46 | 1008.7 |
| 20260505224254 | 22 | 230 | 1.6 | 3.2 | 0.00 | 0.00 | 0.00 | 46 | 1008.4 |
| 20260505223751 | 22 | 269 | 4.8 | 4.8 | 0.00 | 0.00 | 0.00 | 46 | 1008.9 |
| 20260505223247 | 22 | 195 | 4.8 | 4.8 | 0.00 | 0.00 | 0.00 | 46 | 1008.6 |
| 20260505222743 | 22 | 199 | 4.8 | 4.8 | 0.00 | 0.00 | 0.00 | 46 | 1008.5 |
| 20260505222240 | 23 | 191 | 1.6 | 3.2 | 0.00 | 0.00 | 0.00 | 47 | 1008.4 |
| 20260505221737 | 23 | 241 | 8.0 | 9.7 | 0.00 | 0.00 | 0.00 | 46 | 1008.5 |
| 20260505221233 | 23 | 180 | 4.8 | 4.8 | 0.00 | 0.00 | 0.00 | 46 | 1008.5 |
| 20260505220730 | 23 | 232 | 4.8 | 8.0 | 0.00 | 0.00 | 0.00 | 47 | 1008.6 |
| 20260505220228 | 23 | 249 | 3.2 | 3.2 | 0.00 | 0.00 | 0.00 | 46 | 1008.5 |
| 20260505215726 | 23 | 261 | 3.2 | 3.2 | 0.00 | 0.00 | 0.00 | 45 | 1008.4 |
| 20260505215223 | 23 | 206 | 6.4 | 9.7 | 0.00 | 0.00 | 0.00 | 44 | 1008.6 |
| 20260505214721 | 23 | 207 | 6.4 | 8.0 | 0.00 | 0.00 | 0.00 | 44 | 1008.4 |
| 20260505214218 | 23 | 254 | 1.6 | 3.2 | 0.00 | 0.00 | 0.00 | 44 | 1008.3 |
| 20260505213715 | 23 | 206 | 4.8 | 8.0 | 0.00 | 0.00 | 0.00 | 44 | 1008.4 |
| 20260505213213 | 23 | 245 | 1.6 | 3.2 | 0.00 | 0.00 | 0.00 | 44 | 1008.5 |
| 20260505212708 | 23 | 232 | 3.2 | 3.2 | 0.00 | 0.00 | 0.00 | 42 | 1008.3 |
| 20260505212206 | 23 | 228 | 1.6 | 3.2 | 0.00 | 0.00 | 0.00 | 41 | 1007.9 |
| 20260505211703 | 23 | 194 | 3.2 | 3.2 | 0.00 | 0.00 | 0.00 | 40 | 1008.0 |
| 20260505211200 | 24 | 265 | 3.2 | 3.2 | 0.00 | 0.00 | 0.00 | 39 | 1008.1 |
| 20260505210656 | 24 | 226 | 8.0 | 11.3 | 0.00 | 0.00 | 0.00 | 38 | 1007.9 |
| 20260505210153 | 24 | 207 | 4.8 | 4.8 | 0.00 | 0.00 | 0.00 | 39 | 1008.1 |
| 20260505205651 | 24 | 287 | 3.2 | 8.0 | 0.00 | 0.00 | 0.00 | 39 | 1007.9 |
| 20260505205149 | 25 | 212 | 4.8 | 9.7 | 0.00 | 0.00 | 0.00 | 39 | 1008.0 |
| 20260505204645 | 25 | 189 | 6.4 | 8.0 | 0.00 | 0.00 | 0.00 | 38 | 1007.9 |
| 20260505204143 | 25 | 219 | 6.4 | 9.7 | 0.00 | 0.00 | 0.00 | 38 | 1008.0 |
| 20260505203640 | 26 | 260 | 3.2 | 4.8 | 0.00 | 0.00 | 0.00 | 38 | 1008.2 |
| 20260505203137 | 25 | 225 | 8.0 | 9.7 | 0.00 | 0.00 | 0.00 | 37 | 1008.0 |
| 20260505202632 | 25 | 278 | 4.8 | 4.8 | 0.00 | 0.00 | 0.00 | 37 | 1008.2 |
| 20260505202128 | 25 | 190 | 8.0 | 11.3 | 0.00 | 0.00 | 0.00 | 38 | 1008.0 |
| 20260505201625 | 26 | 223 | 6.4 | 9.7 | 0.00 | 0.00 | 0.00 | 37 | 1007.8 |
| 20260505201123 | 26 | 237 | 8.0 | 9.7 | 0.00 | 0.00 | 0.00 | 37 | 1007.7 |
| 20260505200621 | 25 | 234 | 4.8 | 8.0 | 0.00 | 0.00 | 0.00 | 37 | 1007.9 |
| 20260505200118 | 25 | 233 | 6.4 | 8.0 | 0.00 | 0.00 | 0.00 | 37 | 1007.9 |
| 20260505195614 | 26 | 176 | 8.0 | 14.5 | 0.00 | 0.00 | 0.00 | 36 | 1008.0 |
| 20260505195111 | 26 | 197 | 6.4 | 8.0 | 0.00 | 0.00 | 0.00 | 37 | 1008.1 |
| 20260505194608 | 25 | 225 | 11.3 | 14.5 | 0.00 | 0.00 | 0.00 | 36 | 1008.1 |
| 20260505194104 | 25 | 223 | 3.2 | 3.2 | 0.00 | 0.00 | 0.00 | 38 | 1007.8 |
| 20260505193601 | 25 | 256 | 6.4 | 8.0 | 0.00 | 0.00 | 0.00 | 38 | 1008.5 |
| 20260505193058 | 26 | 357 | 6.4 | 11.3 | 0.00 | 0.00 | 0.00 | 38 | 1008.2 |
| 20260505192557 | 25 | 257 | 4.8 | 8.0 | 0.00 | 0.00 | 0.00 | 38 | 1008.7 |
| 20260505192054 | 25 | 283 | 4.8 | 8.0 | 0.00 | 0.00 | 0.00 | 38 | 1008.7 |
| 20260505191552 | 24 | 239 | 8.0 | 9.7 | 0.00 | 0.00 | 0.00 | 40 | 1008.2 |
| 20260505191050 | 25 | 249 | 6.4 | 8.0 | 0.00 | 0.00 | 0.00 | 40 | 1008.5 |
| 20260505190544 | 25 | 264 | 4.8 | 4.8 | 0.00 | 0.00 | 0.00 | 39 | 1008.5 |
| 20260505190040 | 25 | 250 | 6.4 | 8.0 | 0.00 | 0.00 | 0.00 | 38 | 1008.6 |
| 20260505185537 | 25 | 226 | 4.8 | 8.0 | 0.00 | 0.00 | 0.00 | 40 | 1008.9 |
| 20260505185034 | 25 | 234 | 4.8 | 9.7 | 0.00 | 0.00 | 0.00 | 39 | 1008.6 |
| 20260505184531 | 26 | 183 | 8.0 | 11.3 | 0.00 | 0.00 | 0.00 | 39 | 1009.0 |
| 20260505184027 | 25 | 238 | 9.7 | 11.3 | 0.00 | 0.00 | 0.00 | 39 | 1009.1 |
| 20260505183524 | 25 | 255 | 4.8 | 9.7 | 0.00 | 0.00 | 0.00 | 41 | 1009.1 |
| 20260505183021 | 25 | 254 | 6.4 | 8.0 | 0.00 | 0.00 | 0.00 | 42 | 1008.9 |
| 20260505182512 | 26 | 311 | 4.8 | 8.0 | 0.00 | 0.00 | 0.00 | 42 | 1009.1 |
| 20260505182009 | 25 | 175 | 4.8 | 8.0 | 0.00 | 0.00 | 0.00 | 43 | 1008.9 |
| 20260505181505 | 25 | 235 | 4.8 | 4.8 | 0.00 | 0.00 | 0.00 | 45 | 1009.0 |
| 20260505181003 | 25 | 187 | 6.4 | 9.7 | 0.00 | 0.00 | 0.00 | 42 | 1008.9 |
| 20260505180458 | 25 | 287 | 4.8 | 4.8 | 0.00 | 0.00 | 0.00 | 41 | 1009.0 |
| 20260505175955 | 25 | 237 | 6.4 | 9.7 | 0.00 | 0.00 | 0.00 | 42 | 1009.6 |
| 20260505175451 | 26 | 265 | 8.0 | 11.3 | 0.00 | 0.00 | 0.00 | 41 | 1009.4 |
| 20260505174948 | 26 | 190 | 4.8 | 9.7 | 0.00 | 0.00 | 0.00 | 40 | 1009.0 |
| 20260505174445 | 26 | 261 | 6.4 | 8.0 | 0.00 | 0.00 | 0.00 | 40 | 1009.5 |
| 20260505173941 | 25 | 253 | 8.0 | 11.3 | 0.00 | 0.00 | 0.00 | 41 | 1009.1 |
| 20260505173438 | 25 | 325 | 4.8 | 4.8 | 0.00 | 0.00 | 0.00 | 44 | 1009.2 |
| 20260505172935 | 25 | 260 | 6.4 | 9.7 | 0.00 | 0.00 | 0.00 | 45 | 1009.6 |
| 20260505172434 | 25 | 244 | 3.2 | 3.2 | 0.00 | 0.00 | 0.00 | 46 | 1009.2 |
| 20260505171932 | 24 | 272 | 8.0 | 9.7 | 0.00 | 0.00 | 0.00 | 47 | 1009.4 |
| 20260505171430 | 25 | 254 | 4.8 | 4.8 | 0.00 | 0.00 | 0.00 | 45 | 1009.2 |
| 20260505170926 | 25 | 292 | 4.8 | 8.0 | 0.00 | 0.00 | 0.00 | 47 | 1009.1 |
| 20260505170423 | 25 | 266 | 4.8 | 8.0 | 0.00 | 0.00 | 0.00 | 46 | 1009.6 |
| 20260505165918 | 25 | 228 | 8.0 | 9.7 | 0.00 | 0.00 | 0.00 | 46 | 1009.5 |
| 20260505165415 | 25 | 188 | 11.3 | 16.1 | 0.00 | 0.00 | 0.00 | 44 | 1009.5 |
| 20260505164910 | 25 | 171 | 6.4 | 9.7 | 0.00 | 0.00 | 0.00 | 46 | 1009.6 |
| 20260505164407 | 25 | 245 | 4.8 | 4.8 | 0.00 | 0.00 | 0.00 | 49 | 1009.7 |
| 20260505163905 | 24 | 238 | 4.8 | 8.0 | 0.00 | 0.00 | 0.00 | 49 | 1009.9 |
| 20260505163404 | 24 | 212 | 3.2 | 4.8 | 0.00 | 0.00 | 0.00 | 51 | 1009.8 |
| 20260505162902 | 24 | 232 | 4.8 | 8.0 | 0.00 | 0.00 | 0.00 | 49 | 1009.8 |
| 20260505162357 | 24 | 241 | 8.0 | 9.7 | 0.00 | 0.00 | 0.00 | 48 | 1009.9 |
| 20260505161855 | 24 | 228 | 4.8 | 4.8 | 0.00 | 0.00 | 0.00 | 50 | 1010.2 |
| 20260505161352 | 24 | 213 | 6.4 | 8.0 | 0.00 | 0.00 | 0.00 | 50 | 1010.0 |
| 20260505160849 | 23 | 276 | 3.2 | 4.8 | 0.00 | 0.00 | 0.00 | 49 | 1010.3 |
| 20260505160347 | 24 | 254 | 4.8 | 4.8 | 0.00 | 0.00 | 0.00 | 49 | 1010.3 |
| 20260505153325 | 23 | 185 | 8.0 | 9.7 | 0.00 | 0.00 | 0.00 | 54 | 1010.6 |
| 20260505152822 | 23 | 214 | 6.4 | 9.7 | 0.00 | 0.00 | 0.00 | 53 | 1010.5 |
| 20260505152319 | 22 | 221 | 4.8 | 8.0 | 0.00 | 0.00 | 0.00 | 54 | 1010.5 |
| 20260505151814 | 22 | 231 | 4.8 | 4.8 | 0.00 | 0.00 | 0.00 | 54 | 1010.5 |
| 20260505151311 | 22 | 211 | 4.8 | 4.8 | 0.00 | 0.00 | 0.00 | 54 | 1010.6 |
| 20260505150808 | 22 | 237 | 0.0 | 1.6 | 0.00 | 0.00 | 0.00 | 57 | 1011.0 |
| 20260505150305 | 21 | 212 | 1.6 | 3.2 | 0.00 | 0.00 | 0.00 | 58 | 1010.8 |
| 20260505140229 | 21 | 232 | 3.2 | 3.2 | 0.00 | 0.00 | 0.00 | 60 | 1011.0 |
| 20260505130153 | 18 | 227 | 1.6 | 3.2 | 0.00 | 0.00 | 0.00 | 66 | 1011.2 |
| 20260505124643 | 18 | 227 | 1.6 | 3.2 | 0.00 | 0.00 | 0.00 | 67 | 1011.0 |
| 20260505124139 | 17 | 228 | 1.6 | 3.2 | 0.00 | 0.00 | 0.00 | 68 | 1010.8 |
| 20260505123635 | 17 | 231 | 3.2 | 3.2 | 0.00 | 0.00 | 0.00 | 68 | 1011.2 |
| 20260505123132 | 17 | 225 | 0.0 | 1.6 | 0.00 | 0.00 | 0.00 | 69 | 1011.1 |
| 20260505122629 | 17 | 224 | 3.2 | 4.8 | 0.00 | 0.00 | 0.00 | 68 | 1011.1 |
| 20260505122126 | 17 | 219 | 3.2 | 3.2 | 0.00 | 0.00 | 0.00 | 70 | 1010.9 |
| 20260505121623 | 17 | 223 | 4.8 | 4.8 | 0.00 | 0.00 | 0.00 | 71 | 1011.1 |
| 20260505121119 | 16 | 224 | 3.2 | 4.8 | 0.00 | 0.00 | 0.00 | 72 | 1011.0 |
| 20260505120616 | 16 | 225 | 3.2 | 4.8 | 0.00 | 0.00 | 0.00 | 72 | 1011.2 |
| 20260505120112 | 16 | 225 | 4.8 | 4.8 | 0.00 | 0.00 | 0.00 | 74 | 1011.1 |
| 20260505115606 | 16 | 226 | 3.2 | 3.2 | 0.00 | 0.00 | 0.00 | 75 | 1011.0 |
| 20260505115104 | 15 | 225 | 3.2 | 3.2 | 0.00 | 0.00 | 0.00 | 75 | 1010.9 |
| 20260505114601 | 15 | 229 | 3.2 | 3.2 | 0.00 | 0.00 | 0.00 | 77 | 1011.0 |
| 20260505114057 | 15 | 226 | 1.6 | 3.2 | 0.00 | 0.00 | 0.00 | 77 | 1010.9 |
| 20260505113553 | 14 | 226 | 4.8 | 4.8 | 0.00 | 0.00 | 0.00 | 79 | 1010.9 |
| 20260505113050 | 13 | 226 | 1.6 | 3.2 | 0.00 | 0.00 | 0.00 | 80 | 1011.0 |
| 20260505112546 | 13 | 226 | 1.6 | 3.2 | 0.00 | 0.00 | 0.00 | 82 | 1010.7 |
| 20260505112044 | 13 | 226 | 1.6 | 1.6 | 0.00 | 0.00 | 0.00 | 83 | 1011.0 |
| 20260505111538 | 12 | 226 | 3.2 | 3.2 | 0.00 | 0.00 | 0.00 | 84 | 1010.8 |
| 20260505111035 | 12 | 226 | 3.2 | 3.2 | 0.00 | 0.00 | 0.00 | 84 | 1011.0 |
| 20260505110531 | 12 | 228 | 3.2 | 3.2 | 0.00 | 0.00 | 0.00 | 84 | 1010.9 |
| 20260505101957 | 11 | 227 | 3.2 | 3.2 | 0.00 | 0.00 | 0.00 | 84 | 1010.7 |
| 20260505101450 | 11 | 228 | 3.2 | 3.2 | 0.00 | 0.00 | 0.00 | 83 | 1010.5 |
| 20260505100946 | 11 | 227 | 1.6 | 3.2 | 0.00 | 0.00 | 0.00 | 83 | 1010.4 |
| 20260505100443 | 11 | 226 | 4.8 | 4.8 | 0.00 | 0.00 | 0.00 | 82 | 1010.5 |
| 20260505095938 | 11 | 226 | 3.2 | 3.2 | 0.00 | 0.00 | 0.00 | 82 | 1010.4 |
| 20260505095430 | 11 | 225 | 3.2 | 3.2 | 0.00 | 0.00 | 0.00 | 80 | 1010.5 |
| 20260505094926 | 11 | 226 | 1.6 | 3.2 | 0.00 | 0.00 | 0.00 | 81 | 1010.4 |
| 20260505094424 | 10 | 226 | 1.6 | 1.6 | 0.00 | 0.00 | 0.00 | 82 | 1010.4 |
| 20260505093920 | 10 | 226 | 1.6 | 3.2 | 0.00 | 0.00 | 0.00 | 84 | 1010.4 |
| 20260505093417 | 10 | 226 | 1.6 | 3.2 | 0.00 | 0.00 | 0.00 | 85 | 1010.3 |
| 20260505092914 | 10 | 227 | 1.6 | 1.6 | 0.00 | 0.00 | 0.00 | 85 | 1010.4 |
| 20260505092412 | 10 | 227 | 1.6 | 1.6 | 0.00 | 0.00 | 0.00 | 84 | 1010.6 |
| 20260505091909 | 10 | 227 | 1.6 | 1.6 | 0.00 | 0.00 | 0.00 | 84 | 1010.3 |
| 20260505091406 | 10 | 227 | 0.0 | 0.0 | 0.00 | 0.00 | 0.00 | 85 | 1010.5 |
| 20260505090904 | 10 | 227 | 0.0 | 0.0 | 0.00 | 0.00 | 0.00 | 84 | 1010.5 |
| 20260505090402 | 10 | 227 | 0.0 | 0.0 | 0.00 | 0.00 | 0.00 | 85 | 1010.4 |
| 20260505085859 | 10 | 227 | 1.6 | 1.6 | 0.00 | 0.00 | 0.00 | 85 | 1010.4 |
| 20260505085357 | 10 | 226 | 1.6 | 1.6 | 0.00 | 0.00 | 0.00 | 84 | 1010.4 |
| 20260505084855 | 11 | 228 | 0.0 | 1.6 | 0.00 | 0.00 | 0.00 | 79 | 1010.5 |
| 20260505084353 | 11 | 228 | 0.0 | 0.0 | 0.00 | 0.00 | 0.00 | 77 | 1010.5 |
| 20260505083850 | 11 | 228 | 0.0 | 1.6 | 0.00 | 0.00 | 0.00 | 75 | 1010.4 |
| 20260505083348 | 11 | 228 | 0.0 | 0.0 | 0.00 | 0.00 | 0.00 | 75 | 1010.1 |
| 20260505082844 | 11 | 228 | 1.6 | 1.6 | 0.00 | 0.00 | 0.00 | 74 | 1010.1 |
| 20260505082340 | 11 | 228 | 1.6 | 3.2 | 0.00 | 0.00 | 0.00 | 74 | 1010.1 |
| 20260505081837 | 11 | 228 | 1.6 | 1.6 | 0.00 | 0.00 | 0.00 | 73 | 1010.2 |